Voltar ao catálogo

STARLINK-30233

AtivoComunicaçõesVLEO
NORAD 57302·PAYLOAD·🇺🇸 United States

Lançado Jul 10, 2023 de Cape Canaveral Space Force Station

Loading…

Próximas Passagens (próximas 24 horas)

TLE

AtualizadoSource: CelesTrak SupGP

Época: Sep 14, 2026, 22:03 UTC

1 57302C 23096N   26257.91923611  .00549190  00000+0  66457-2 0  2575
2 57302  42.9998 229.4314 0001982 267.0132 168.3896 15.59500576    11

Acompanhe STARLINK-30233 em tempo real com AllMySat

Download on the App Store